Location: Innsbruck
(47.2657°N, 11.3914°E)
Time: 20:43:45
(UTC+01:00)

BEESAT 2 - Pass Details

Date: 04 December 2021
Orbit: 498 x 513 km, 64.9° (Epoch: 24 January)

Event Time Altitude Azimuth Distance (km) Brightness Sun altitude
Exits shadow 05:19:03 20° 15° (NNE) 1,257 ? -23.7°
Maximum altitude 05:20:07 22° 38° (NE) 1,174 ? -23.5°
Drops below altitude 10° 05:23:12 10° 90° (E) 1,743 ? -23.0°
Sets 05:25:44 0° 106° (ESE) 2,624 ? -22.6°
